Regional Weather Roundup
Issued by NWS Nashville, TN

Home | Current Version | Previous Version | Text Only | Print | Product List | Glossary On
Versions: 1 2 3 4 5 6 7 8 9 10 11 12 13 14 15 16 17 18 19 20 21 22 23 24 25 26 27
000
ASUS44 KOHX 210710
RWROHX
MIDDLE TENNESSEE HOURLY WEATHER ROUNDUP
NATIONAL WEATHER SERVICE NASHVILLE TN
200 AM CDT MON AUG 21 2017

NOTE: "FAIR" INDICATES FEW OR NO CLOUDS BELOW 12,000 FEET WITH
NO SIGNIFICANT WEATHER AND/OR OBSTRUCTIONS TO VISIBILITY.

* THESE REPORTS ARE NOT UNDER NWS QUALITY CONTROL AND MAY NOT
  REPORT WEATHER SUCH AS PRECIPITATION AND FOG.


TNZ005>011-023>034-057-059-062>066-078-080-210800
...NORTHERN MIDDLE TENNESSEE...

CITY           SKY/WX    TMP DP  RH WIND       PRES   REMARKS
CLARKSVILLE    CLOUDY    71  68  90 CALM      30.11S
CROSSVILLE     CLEAR     66  65  96 CALM      30.22S
GALLATIN       CLEAR     70  68  94 CALM      30.15S
LEBANON        CLEAR     70  67  90 CALM      30.11F
NASHVILLE      PTCLDY    74  69  85 SE3       30.12F
PORTLAND       CLEAR     70  68  94 S5        30.12S
SMYRNA         CLEAR     71  70  96 CALM      30.13F
SPARTA         FOG       66  66 100 CALM      30.16S VSB 1/4
WEST NASHVILLE CLEAR     73  70  88 CALM      30.10S
$$
TNZ056-058-060-061-075>077-079-093>097-210800
...SOUTHERN MIDDLE TENNESSEE...

CITY           SKY/WX    TMP DP  RH WIND       PRES   REMARKS
COLUMBIA       CLEAR     70  70 100 CALM      30.11F
FAYETTEVILLE   CLEAR     72  70  94 CALM      30.15R
MCMINNVILLE    CLOUDY    70  70 100 CALM      30.16F VSB 3/4
MURFREESBORO   CLEAR     74  70  87 CALM      30.12F
PULASKI        MOCLDY    68  68 100 CALM      30.13F
SHELBYVILLE    PTCLDY    70  70 100 CALM      30.14S
TULLAHOMA      CLEAR     70  66  88 CALM      30.17S
WINCHESTER     CLEAR     70  66  88 CALM      30.17R
$$


...KEY TO REMARKS...
VSB - VISIBILITY IN MILES
WCI - WIND CHILL INDEX
HX  - HEAT INDEX





USA.gov is the U.S. government's official web portal to all federal, state and local government web resources and services.